カタログに戻る

STARLINK-36257

運用中通信SSO
NORAD 67903·PAYLOAD·🇺🇸 United States

打ち上げ Feb 21, 2026 から Vandenberg Space Force Base

Loading…

次のパス (今後24時間)

TLE

最新Source: CelesTrak SupGP

元期: Sep 15, 2026, 02:52 UTC

1 67903C 26035AA  26258.11993056  .00080694  00000+0  25048-2 0  2583
2 67903  97.2851 190.0120 0001701  91.3190   3.9148 15.33399838    12

AllMySatでSTARLINK-36257をリアルタイム追跡

Download on the App Store